カタログに戻る

COSMOS 1275 DEB

運用中PO
NORAD 12667·DEBRIS·🇷🇺 Russia

打ち上げ Jun 4, 1981 から Plesetsk Cosmodrome

Loading…

次のパス (今後24時間)

TLE

最新Source: Space-Track

元期: Sep 14, 2026, 14:14 UTC

1 12667U 81053X   26257.59320708  .00000347  00000-0  29874-3 0  9992
2 12667  82.8377 309.6109 0035292 174.3776 339.2818 13.83695699266897

AllMySatでCOSMOS 1275 DEBをリアルタイム追跡

Download on the App Store